Location: Newark
(44.1667°N, 8.2500°E)
Time: 02:23:56
(UTC+00:00)

S-56A Canister/Altair - Pass Details

Date: 12 December 2019
Orbit: 634 x 2498 km, 38.9° (Epoch: 22 January)

Event Time Altitude Azimuth Distance (km) Brightness Sun altitude
Rises 15:03:40 0° 284° (WNW) 6,170 12.7 5.6°
Reaches altitude 10° 15:08:17 10° 277° (W) 5,085 12.4 5.0°
Maximum altitude 15:20:31 36° 220° (SW) 3,006 11.6 3.3°
Drops below altitude 10° 15:30:03 10° 159° (SSE) 3,943 11.4 1.9°
Sets 15:33:10 0° 150° (SSE) 4,674 11.6 1.4°
